Location: Buckland
(65.9785°N, 161.1281°W)
Time: 14:49:32
(UTC+00:00)

Transit 4A - Pass Details

Date: 03 October 2022
Orbit: 871 x 972 km, 66.8° (Epoch: 29 November)

Event Time Altitude Azimuth Distance (km) Brightness Sun altitude
Exits shadow 14:04:00 18° 283° (WNW) 2,096 9.4 -18.2°
Maximum altitude 14:08:40 88° 12° (NNE) 899 7.8 -17.8°
Drops below altitude 10° 14:14:34 10° 104° (ESE) 2,537 10.8 -17.3°
Sets 14:17:01 0° 105° (ESE) 3,469 11.6 -17.0°
